Find Starlink 37856

NORAD ID: 69491 Int'l Des: 2026-131 Owner: SPXS Country: US Constellation: starlink operational
LEOCIRCULARRETROGRADE

現在のビュー

3D地球を読み込み中...

About Starlink 37856

Starlink 37856 (NORAD 69491) is a starlink constellation satellite (v2 mini) launched Jun 11, 2026 by SPXS of US. It operates in LEO, CIRCULAR, RETROGRADE orbit with a mass of 575.00 kg.

次回通過

Passes for default location (London). Set your location on the main map for personalized predictions.

高度履歴

Loading altitude history...

軌道要素

1 69491U 26131P 26209.16668980 -.00043545 00000-0 -13535-2 0 9997
2 69491 97.2841 230.8295 0001438 103.8806 213.0858 15.33461603 6008
Epoch: Jul 28, 2026 • Age: 6 hours

現在のステータス

高度 483.2 km
遠地点 / 近地点 N/A
速度 7.62 km/s
衛星直下点 -44.16°S, 50.03°W
打ち上げ日 Jun 11, 2026
運用期間 0.1 years
タイプ internet

技術仕様

分類 Payload
質量 575.00 kg
乾燥質量 530.00 kg
総質量 575.00 kg
長さ 0.30 m
直径 4.10 m
スパン 29.00 m
形状 Box + pan
製造者 SPXS
バスタイプ Starlink V2MO
フェーズステータス In Orbit
所有者/国 SPXS/US

Most Searched